KD5NDU-15 Weather Reports


time (UTC)temp
F
wind
direction
speed
knots
gust
knots
rain 1hr
in
rain 24hr
in
rain mn
in
humidity
%
barometer
mb
20260506182648 61 6 0.9 1.7 0.00 0.00 0.00 95 1010.6
20260506182148 61 16 0.9 2.6 0.00 0.00 0.00 96 1010.6
20260506181648 61 4 0.9 1.7 0.00 0.00 0.00 95 1010.6
20260506181148 61 359 0.9 2.6 0.00 0.00 0.00 95 1010.8
20260506180650 61 11 0.9 2.6 0.00 0.00 0.00 95 1010.7
20260506180148 61 295 0.9 2.6 0.00 0.00 0.00 95 1010.6
20260506175648 62 259 0.9 2.6 0.00 0.00 0.00 95 1010.6
20260506175150 62 1 0.9 1.7 0.00 0.00 0.00 95 1010.4
20260506174648 62 319 0.9 0.9 0.00 0.00 0.00 97 1010.6
20260506174148 61 318 0.9 1.7 0.00 0.00 0.00 96 1010.5
20260506173652 61 20 0.9 2.6 0.00 0.00 0.00 96 1010.7
20260506173148 61 359 0.9 1.7 0.00 0.00 0.00 96 1010.8
20260506172648 61 12 0.9 2.6 0.00 0.00 0.00 96 1010.8
20260506172148 61 20 0.9 1.7 0.00 0.00 0.00 96 1010.8
20260506171652 61 15 0.9 1.7 0.00 0.00 0.00 96 1010.9
20260506171152 61 28 0.9 2.6 0.00 0.00 0.00 96 1010.7
20260506170648 61 22 0.9 2.6 0.00 0.00 0.00 96 1010.6
20260506170148 62 359 0.9 1.7 0.00 0.00 0.00 96 1010.5
20260506165648 62 46 0.9 2.6 0.00 0.00 0.00 96 1010.5
20260506165148 62 1 1.7 2.6 0.00 0.00 0.00 96 1010.5
20260506164648 62 1 1.7 2.6 0.00 0.00 0.00 95 1010.5
20260506164214 63 4 0.9 2.6 0.00 0.00 0.00 95 1010.4
20260506163650 64 1 0.9 1.7 0.00 0.00 0.00 96 1010.3
20260506163148 64 1 0.9 1.7 0.00 0.00 0.00 96 1010.3
20260506162648 64 11 0.9 1.7 0.00 0.00 0.00 97 1010.4
20260506162148 65 12 0.9 1.7 0.00 0.00 0.00 97 1010.1
20260506161648 65 13 0.9 1.7 0.00 0.00 0.00 97 1010.0
20260506161157 65 15 0.9 1.7 0.00 0.00 0.00 97 1009.9
20260506160648 65 15 0.9 1.7 0.00 0.00 0.00 97 1009.9
20260506160148 65 13 0.9 1.7 0.00 0.00 0.00 97 1009.9
20260506155652 65 15 0.9 3.5 0.00 0.00 0.00 97 1009.7
20260506155150 65 10 0.9 1.7 0.00 0.00 0.00 97 1009.8
20260506154648 66 3 0.9 1.7 0.00 0.00 0.00 97 1009.6
20260506154148 66 37 0.9 2.6 0.00 0.00 0.00 97 1009.6
20260506153650 66 20 0.9 1.7 0.00 0.00 0.00 97 1009.6
20260506153148 67 5 0.0 2.6 0.00 0.00 0.00 98 1009.6
20260506152648 67 5 0.0 2.6 0.00 0.00 0.00 98 1009.6
20260506152148 67 256 0.0 0.9 0.00 0.00 0.00 98 1009.5
20260506151648 67 165 0.0 0.9 0.00 0.00 0.00 98 1009.6
20260506151148 67 165 221.6 221.6 0.00 0.00 0.00 98 1009.2
20260506150648 0 767 221.6 221.6 0.00 0.00 0.00
20260506150148 0 767 221.6 221.6 0.00 0.00 0.00
20260506123957 0 767 221.6 221.6 0.00 0.00 0.00
20260506123252 0 767 221.6 221.6 0.00 0.00 0.00
20260506031925 70 179 0.9 1.7 0.00 0.00 0.00 89 1006.9
20260506031417 70 205 0.9 2.6 0.00 0.00 0.00 89 1006.9
20260506030917 70 213 0.9 1.7 0.00 0.00 0.00 89 1006.9
20260506030417 70 233 0.9 2.6 0.00 0.00 0.00 89 1007.0
20260506025917 70 86 1.7 3.5 0.00 0.00 0.00 89 1006.9
20260506025417 70 256 0.9 3.5 0.00 0.00 0.00 89 1006.8
20260506024917 70 238 0.9 1.7 0.00 0.00 0.00 88 1006.7
20260506024417 70 161 0.9 3.5 0.00 0.00 0.00 88 1006.7
20260506023917 70 272 0.9 1.7 0.00 0.00 0.00 88 1006.8
20260506023417 70 177 0.9 2.6 0.00 0.00 0.00 88 1006.9
20260506022945 70 198 0.9 4.3 0.00 0.00 0.00 88 1006.8
20260506022418 70 164 0.9 2.6 0.00 0.00 0.00 88 1006.7
20260506021917 70 180 1.7 4.3 0.00 0.00 0.00 88 1006.7
20260506021417 70 211 0.9 4.3 0.00 0.00 0.00 88 1006.6
20260506020917 70 144 0.9 3.5 0.00 0.00 0.00 88 1006.6
20260506020417 70 169 1.7 3.5 0.00 0.00 0.00 88 1006.5
20260506015917 70 172 1.7 5.2 0.00 0.00 0.00 88 1006.3
20260506015417 70 179 1.7 6.1 0.00 0.00 0.00 88 1006.3
20260506014946 70 169 1.7 5.2 0.00 0.00 0.00 88 1006.3
20260506014417 70 193 1.7 6.1 0.00 0.00 0.00 88 1006.2
20260506013917 70 225 1.7 3.5 0.00 0.00 0.00 88 1006.4
20260506013417 70 238 2.6 6.1 0.00 0.00 0.00 88 1006.1
20260506012917 70 165 2.6 6.1 0.00 0.00 0.00 89 1005.9
20260506012417 70 183 2.6 5.2 0.00 0.00 0.00 89 1006.1
20260506011918 70 236 1.7 5.2 0.00 0.00 0.00 89 1006.2
20260506011417 70 140 0.9 3.5 0.00 0.00 0.00 89 1006.3
20260506010925 70 193 1.7 4.3 0.00 0.00 0.00 89 1005.9
20260506010417 70 147 1.7 5.2 0.00 0.00 0.00 89 1006.1
20260506005917 70 168 1.7 5.2 0.00 0.00 0.00 89 1006.0
20260506005419 70 207 1.7 6.1 0.00 0.00 0.00 89 1006.1
20260506004921 70 148 1.7 4.3 0.00 0.00 0.00 89 1005.9
20260506004419 70 168 1.7 5.2 0.00 0.00 0.00 89 1006.1
20260506003917 70 179 2.6 4.3 0.00 0.00 0.00 90 1006.1
20260506003417 70 188 2.6 6.1 0.00 0.00 0.00 89 1005.9
20260506002917 70 165 2.6 6.1 0.00 0.00 0.00 90 1006.0
20260506002417 70 126 1.7 5.2 0.00 0.00 0.00 90 1006.0
20260506001917 70 152 1.7 3.5 0.00 0.00 0.00 90 1006.2
20260506001431 70 160 1.7 5.2 0.00 0.00 0.00 90 1006.0
20260506000917 70 174 2.6 4.3 0.00 0.00 0.00 90 1006.2
20260506000423 70 188 2.6 6.1 0.00 0.00 0.00 90 1006.0
20260505235917 70 177 2.6 6.1 0.00 0.00 0.00 90 1006.1
20260505235417 70 185 1.7 5.2 0.00 0.00 0.00 90 1006.2
20260505234917 70 157 1.7 5.2 0.00 0.00 0.00 90 1006.2
20260505234418 70 170 1.7 4.3 0.00 0.00 0.00 90 1006.4
20260505233917 70 210 1.7 6.1 0.00 0.00 0.00 90 1006.6
20260505233417 70 188 2.6 4.3 0.00 0.00 0.00 90 1006.7
20260505232917 70 135 2.6 5.2 0.00 0.00 0.00 90 1006.8
20260505232417 70 157 1.7 5.2 0.00 0.00 0.00 90 1007.0
20260505231917 70 168 1.7 7.0 0.00 0.00 0.00 89 1006.9
20260505231417 70 195 0.9 4.3 0.00 0.00 0.00 89 1006.9
20260505230919 70 186 1.7 3.5 0.00 0.00 0.00 89 1006.9
20260505230417 70 158 2.6 5.2 0.00 0.00 0.00 89 1007.0
20260505225919 70 166 1.7 4.3 0.00 0.00 0.00 89 1007.1
20260505225417 70 161 1.7 4.3 0.00 0.00 0.00 89 1006.9
20260505224917 70 173 1.7 3.5 0.00 0.00 0.00 89 1007.0
20260505224417 70 171 1.7 4.3 0.00 0.00 0.00 89 1007.0
20260505223917 70 162 1.7 4.3 0.00 0.00 0.00 89 1007.1
20260505223417 70 206 1.7 6.1 0.00 0.00 0.00 89 1007.1
20260505222917 70 152 1.7 6.1 0.00 0.00 0.00 89 1007.1
20260505222417 70 159 2.6 5.2 0.00 0.00 0.00 90 1007.1
20260505221917 69 209 1.7 7.0 0.00 0.00 0.00 90 1007.1
20260505221417 70 163 1.7 4.3 0.00 0.00 0.00 90 1007.2
20260505220917 70 167 1.7 5.2 0.00 0.00 0.00 89 1007.4
20260505220417 70 139 1.7 5.2 0.00 0.00 0.00 88 1007.2
20260505215917 71 188 3.5 221.6 0.00 0.00 0.00 88 1007.3
20260505215417 71 266 3.5 221.6 0.00 0.00 0.00 87 1007.3
20260505214917 0 767 221.6 221.6 0.00 0.00 0.00 1007.6
20260505214417 0 767 221.6 221.6 0.00 0.00 0.00 1007.6
20260505213917 0 767 221.6 221.6 0.00 0.00 0.00 1007.5
20260505213418 0 767 221.6 221.6 0.00 0.00 0.00 1007.6
20260505212917 0 767 221.6 221.6 0.00 0.00 0.00 1007.5
20260505212417 0 767 221.6 221.6 0.00 0.00 0.00 1007.6
20260505211917 0 767 221.6 221.6 0.00 0.00 0.00 1007.6
20260505211421 0 767 221.6 221.6 0.00 0.00 0.00 1007.7
20260505210917 0 767 221.6 221.6 0.00 0.00 0.00 1007.6
20260505210420 0 767 221.6 221.6 0.00 0.00 0.00 1007.7
20260505205917 0 767 221.6 221.6 0.00 0.00 0.00 1007.6
20260505205425 0 767 221.6 221.6 0.00 0.00 0.00 1007.7
20260505204917 0 767 221.6 221.6 0.00 0.00 0.00 1007.7
20260505204417 0 767 221.6 221.6 0.00 0.00 0.00 1007.7
20260505203917 0 767 221.6 221.6 0.00 0.00 0.00 1007.8
20260505203417 0 767 221.6 221.6 0.00 0.00 0.00 1007.7
20260505202917 0 767 221.6 221.6 0.00 0.00 0.00 1007.8
20260505202420 0 767 221.6 221.6 0.00 0.00 0.00 1007.8
20260505201917 0 767 221.6 221.6 0.00 0.00 0.00 1007.9
20260505201417 0 767 221.6 221.6 0.00 0.00 0.00 1008.0
20260505200918 0 767 221.6 221.6 0.00 0.00 0.00 1008.0
20260505200418 0 767 221.6 221.6 0.00 0.00 0.00 1007.9
20260505195918 0 767 221.6 221.6 0.00 0.00 0.00 1008.0
20260505195418 0 767 221.6 221.6 0.00 0.00 0.00 1008.0
20260505194918 0 767 221.6 221.6 0.00 0.00 0.00 1007.9
20260505194418 0 767 221.6 221.6 0.00 0.00 0.00 1007.9
20260505193920 0 767 221.6 221.6 0.00 0.00 0.00 1007.9
20260505193420 0 767 221.6 221.6 0.00 0.00 0.00 1008.1
20260505192918 0 767 221.6 221.6 0.00 0.00 0.00 1008.1
20260505192418 0 767 221.6 221.6 0.00 0.00 0.00 1008.3
20260505191918 0 767 221.6 221.6 0.00 0.00 0.00 1008.2
20260505191420 0 767 221.6 221.6 0.00 0.00 0.00 1008.1
20260505190918 0 767 221.6 221.6 0.00 0.00 0.00 1008.1
20260505190418 0 767 221.6 221.6 0.00 0.00 0.00 1008.3
20260505185918 0 767 221.6 221.6 0.00 0.00 0.00 1008.4
20260505185418 0 767 221.6 221.6 0.00 0.00 0.00 1008.7
20260505184918 0 767 221.6 221.6 0.00 0.00 0.00 1008.7
20260505184420 0 767 221.6 221.6 0.00 0.00 0.00 1008.7
20260505183918 0 767 221.6 221.6 0.00 0.00 0.00 1008.6
20260505183418 0 767 221.6 221.6 0.00 0.00 0.00 1008.6
20260505182918 0 767 221.6 221.6 0.00 0.00 0.00 1008.7